Weather History for Syracuse, NY

Change the Weather History Date:

Monday, August 12, 2013

  Actual Average Record
Temperature  
Mean Temperature 70 °F 70 °F  
Max Temperature 81 °F 81 °F 95 °F (1944)
Min Temperature 58 °F 60 °F 48 °F (1950)
Degree Days  
Heating Degree Days 0 0  
Month to date heating degree days 1 0  
Since 1 June heating degree days 65 69  
Since 1 July heating degree days 4 8  
Cooling Degree Days 5 6  
Month to date cooling degree days 54 72  
Year to date cooling degree days 533 418  
Since 1 June cooling degree days 481 388  
Growing Degree Days 19 (Base 50)    
Moisture  
Dew Point 58 °F    
Average Humidity 66    
Maximum Humidity 87    
Minimum Humidity 45    
Precipitation  
Precipitation 0.00 in 0.12 in 1.42 in (1937)
Month to date precipitation 0.60 1.37  
Year to date precipitation 24.60 22.39  
Snow  
Snow 0.00 in 0.00 in 0.00 in (2002)
Month to date snowfall 0.0 0.0  
Since 1 June snowfall 0.0 0.0  
Since 1 July snowfall 0.0 0.0  
Snow Depth 0.00 in    
Sea Level Pressure  
Sea Level Pressure 29.97 in    
Wind  
Wind Speed 4 mph (South)    
Max Wind Speed 12 mph    
Max Gust Speed 18 mph    
Visibility 10 miles    
Events      
T = Trace of Precipitation, MM = Missing Value Source: NWS Daily Summary

Daily Weather History Graph

Daily Weather History Graph

Search for Another Location

Airport:

Trip Planner

Search our weather history database for the weather conditions in past years. The results will help you decide how hot, cold, wet, or windy it might be!

Date:

Astronomy

Aug. 12, 2013 Rise Set
Actual Time 6:07 AM EDT 8:10 PM EDT
Civil Twilight 5:35 AM EDT 8:41 PM EDT
Nautical Twilight 4:57 AM EDT 9:19 PM EDT
Astronomical Twilight 4:15 AM EDT 10:01 PM EDT
Moon 12:06 PM EDT (8/12) 10:50 PM EDT (8/12)
Length of Visible Light 15h 05m
Length of Day
14h 03m
Waxing Crescent, 31% of the Moon is Illuminated
Aug 12
Waxing Crescent
Aug 14
First Quarter
Aug 20
Full
Aug 28
Last Quarter
Sep 5
New

Hourly Weather History & Observations

Time (EDT) Temp. Heat Index Dew Point Humidity Pressure Visibility Wind Dir Wind Speed Gust Speed Precip Events Conditions
12:54 AM 62.1 °F - 57.0 °F 84% 30.04 in 10.0 mi Calm Calm - N/A   Overcast
1:54 AM 62.1 °F - 55.9 °F 80% 30.03 in 10.0 mi ESE 3.5 mph - N/A   Overcast
2:54 AM 60.1 °F - 55.9 °F 86% 30.02 in 10.0 mi ESE 3.5 mph - N/A   Overcast
3:54 AM 61.0 °F - 55.9 °F 83% 30.01 in 10.0 mi Calm Calm - N/A   Mostly Cloudy
4:54 AM 60.1 °F - 55.0 °F 83% 30.01 in 10.0 mi Calm Calm - N/A   Mostly Cloudy
5:54 AM 59.0 °F - 55.0 °F 87% 30.02 in 10.0 mi Calm Calm - N/A   Mostly Cloudy
6:54 AM 59.0 °F - 55.0 °F 87% 30.02 in 10.0 mi Calm Calm - N/A   Scattered Clouds
7:54 AM 64.0 °F - 57.0 °F 78% 30.02 in 10.0 mi Calm Calm - N/A   Scattered Clouds
8:54 AM 70.0 °F - 59.0 °F 68% 30.03 in 10.0 mi SW 6.9 mph - N/A   Mostly Cloudy
9:54 AM 71.1 °F - 60.1 °F 68% 30.01 in 10.0 mi West 4.6 mph - N/A   Mostly Cloudy
10:54 AM 73.9 °F - 60.1 °F 62% 30.01 in 10.0 mi Variable 4.6 mph - N/A   Scattered Clouds
11:54 AM 75.9 °F - 55.0 °F 48% 30.00 in 10.0 mi West 8.1 mph - N/A   Mostly Cloudy
12:54 PM 79.0 °F - 57.0 °F 47% 29.98 in 10.0 mi West 8.1 mph - N/A   Mostly Cloudy
1:54 PM 79.0 °F - 57.0 °F 47% 29.96 in 10.0 mi WSW 9.2 mph - N/A   Mostly Cloudy
2:54 PM 81.0 °F 81.0 °F 57.0 °F 44% 29.95 in 10.0 mi WSW 8.1 mph - N/A   Mostly Cloudy
3:54 PM 77.0 °F - 55.9 °F 48% 29.95 in 10.0 mi WNW 6.9 mph - N/A   Overcast
4:54 PM 77.0 °F - 57.9 °F 52% 29.93 in 10.0 mi Variable 5.8 mph - N/A   Overcast
5:54 PM 75.9 °F - 59.0 °F 56% 29.92 in 10.0 mi North 4.6 mph - N/A   Mostly Cloudy
6:54 PM 73.0 °F - 62.1 °F 68% 29.91 in 10.0 mi ENE 5.8 mph - N/A   Overcast
7:54 PM 71.1 °F - 62.1 °F 73% 29.90 in 10.0 mi East 3.5 mph - N/A   Overcast
8:54 PM 70.0 °F - 62.1 °F 76% 29.88 in 10.0 mi East 3.5 mph - N/A   Mostly Cloudy
9:54 PM 69.1 °F - 61.0 °F 75% 29.88 in 10.0 mi SE 4.6 mph - N/A   Mostly Cloudy
10:54 PM 68.0 °F - 61.0 °F 78% 29.88 in 10.0 mi South 3.5 mph - N/A   Mostly Cloudy
11:54 PM 66.9 °F - 62.1 °F 84% 29.86 in 10.0 mi ESE 3.5 mph - N/A   Mostly Cloudy